Wind_Speed
15 18 20 22 24 25 25 26 26 26 26 26 25 23 22 20 19 18 16 14 13 11 11 10 9 7 6 4 3 3 4 5 6 8 10 9 11 11 12 14 17 22 25 23 22 22 21 19 18 17 15 14 12 10 9 9 8 8 10 11 13 16 15 15 15 16 16 15 12 8 7 7 8 9 8 7 7 7 9 10 11 11 10 10 8 6 5 2
14 15 17 19 21 23 24 26 26 27 27 27 26 26 24 23 22 20 19 17 15 13 12 12 12 10 8 6 4 3 4 6 7 11 10 5 7 11 13 14 15 23 25 23 23 23 22 20 19 18 15 14 11 10 8 8 9 8 9 10 11 14 15 15 15 15 15 13 10 7 5 4 6 6 5 6 6 6 8 9 10 11 11 10 8 6 5 2
15 15 15 16 18 20 22 24 26 27 27 27 28 27 26 25 24 23 21 20 18 16 14 13 13 12 10 9 6 5 5 6 8 10 8 6 11 15 16 14 16 23 25 24 24 23 23 22 20 18 16 14 12 10 9 8 8 8 8 10 11 13 15 15 15 14 14 11 8 6 2 2 4 5 4 5 5 4 5 7 9 10 10 9 7 6 5 2
16 16 16 16 17 17 19 20 23 25 27 28 28 28 28 27 26 25 24 22 21 19 17 15 15 14 13 11 9 7 6 7 8 8 9 10 13 16 17 16 17 24 26 25 24 23 23 22 21 18 16 15 12 11 10 8 7 8 9 10 11 12 13 14 14 13 12 8 6 4 1 2 4 5 5 5 4 2 4 7 8 9 9 8 7 6 5 3
16 17 17 17 17 17 18 18 19 21 24 26 28 29 29 28 28 27 26 25 24 22 19 17 16 16 15 13 12 10 7 7 7 7 10 12 14 16 17 16 18 24 27 26 23 22 22 22 21 18 17 16 13 11 10 8 6 6 9 9 9 11 12 13 12 11 9 7 7 4 1 3 4 5 5 4 3 3 5 7 8 9 9 7 6 6 5 4
18 17 18 18 18 18 18 18 18 19 20 23 26 28 29 29 29 29 28 27 26 25 23 20 18 17 17 15 14 12 10 9 8 7 10 13 15 17 18 17 18 23 26 26 23 22 22 21 20 19 18 16 14 13 10 7 5 6 8 6 7 9 10 12 10 8 7 7 7 4 2 2 3 6 7 5 4 4 6 8 8 8 8 7 6 6 6 5
19 19 19 19 19 19 19 19 19 19 19 20 22 25 27 29 30 30 30 29 28 27 26 23 21 19 18 18 16 14 12 10 10 9 9 12 14 17 19 19 19 22 25 24 23 22 22 21 20 19 18 16 15 12 10 8 7 8 7 5 7 7 8 10 8 6 7 7 7 5 5 3 3 5 6 6 5 5 6 7 8 8 8 8 7 6 6 6
21 21 21 20 20 20 20 20 20 20 20 20 20 21 24 27 29 31 31 30 29 29 28 26 24 22 20 20 18 17 15 12 11 10 9 11 13 15 18 20 19 21 24 25 24 24 22 22 21 20 19 17 16 13 12 10 8 7 6 6 6 5 6 8 6 7 7 7 8 8 7 5 4 5 6 7 7 6 6 5 7 8 8 8 7 6 6 6
22 22 22 22 21 21 21 20 20 21 21 21 21 20 21 23 26 30 31 32 30 30 30 29 27 25 22 21 20 20 18 14 13 12 11 11 13 15 18 19 19 21 25 26 26 25 24 24 22 21 20 18 17 15 13 12 9 7 7 7 7 5 5 6 6 7 6 7 8 9 9 8 6 6 6 8 8 7 6 5 6 7 8 8 7 7 7 6
22 23 23 23 23 22 22 22 22 22 21 22 22 21 21 21 23 26 29 31 31 31 30 30 30 28 25 23 21 22 21 17 15 14 12 12 13 17 19 20 21 23 27 28 26 26 26 26 24 23 21 20 18 16 15 14 11 8 8 8 8 8 6 7 7 6 5 6 6 8 10 10 8 7 7 8 8 8 7 6 6 7 8 7 7 7 7 7
22 22 22 22 22 22 22 22 23 23 23 23 22 22 21 21 22 22 24 27 30 31 30 30 30 30 28 25 24 25 23 19 17 16 15 13 15 19 21 22 23 25 29 29 27 28 29 28 26 24 22 21 20 18 17 16 12 10 10 9 9 9 8 7 8 6 5 6 5 7 9 9 9 8 7 8 8 7 8 8 7 7 8 8 7 6 7 7
22 22 21 21 21 21 21 21 22 23 24 24 23 22 21 22 22 22 22 22 26 30 31 31 30 31 31 27 28 27 23 21 20 19 18 16 17 21 23 25 25 27 29 31 31 31 31 30 28 27 24 23 21 20 20 17 14 13 12 11 9 9 8 8 8 6 3 3 3 5 7 7 7 8 8 8 7 7 7 7 8 8 8 8 7 6 6 6
22 22 22 22 22 21 21 21 22 22 24 24 24 23 22 22 22 22 22 21 22 25 29 32 31 32 32 31 32 27 23 24 24 23 22 20 20 22 26 27 27 28 29 32 34 34 34 33 31 29 26 24 23 22 22 18 16 15 15 13 10 9 8 7 6 5 3 2 1 5 7 6 6 6 6 6 7 7 6 5 7 8 8 8 8 7 5 5
23 23 23 24 24 23 23 22 22 23 24 25 24 23 22 22 23 23 22 22 22 22 26 30 33 33 32 34 35 28 26 28 28 28 26 23 23 24 27 28 28 29 29 31 33 34 35 34 32 29 26 26 25 24 24 20 16 17 17 13 11 9 7 7 6 5 2 1 2 6 8 8 8 7 7 6 5 6 5 3 4 6 8 8 8 8 6 4
24 24 24 25 25 25 25 24 24 25 26 26 25 24 22 22 22 23 23 22 23 23 24 26 32 34 33 36 37 31 29 32 33 31 29 27 26 27 29 30 30 31 31 31 33 33 34 33 32 29 27 28 26 26 26 20 17 18 16 11 10 10 8 8 7 3 1 0 3 6 9 10 10 10 9 7 5 5 5 3 3 4 5 7 8 8 7 5
26 25 25 25 26 26 26 26 26 27 28 28 27 25 24 23 23 23 23 23 23 24 25 25 28 32 35 38 37 33 33 35 35 33 31 30 29 29 30 31 32 32 33 33 34 34 34 33 32 30 29 29 27 28 27 20 18 18 15 10 8 11 10 9 7 1 1 1 3 5 8 10 10 10 9 8 5 4 4 3 3 3 3 5 7 7 6 6
28 27 27 27 27 27 27 27 27 28 29 29 28 27 25 24 24 24 24 24 24 25 26 26 26 28 32 38 37 35 36 37 36 34 33 31 30 30 31 32 34 34 34 35 36 36 35 34 33 30 30 29 28 29 25 18 16 14 14 13 10 11 11 10 7 3 2 1 3 6 9 10 9 8 8 7 4 3 3 2 3 4 5 6 7 6 6 6
30 29 29 29 29 29 28 28 27 29 30 30 29 29 28 26 25 25 25 26 26 26 26 26 27 26 29 37 38 37 39 39 37 36 34 33 32 32 32 33 35 35 35 36 36 36 36 35 34 32 30 30 28 28 22 14 12 11 11 12 13 16 15 13 10 8 7 5 6 8 10 11 9 6 6 5 3 2 3 2 1 2 5 7 8 6 6 6
31 31 31 31 31 31 30 29 29 29 30 31 31 29 29 28 27 27 27 27 27 28 27 27 28 27 27 33 38 39 40 41 39 37 37 36 36 34 34 35 36 36 35 35 35 35 36 35 34 31 28 28 26 24 21 17 14 13 11 10 14 18 17 15 12 11 9 9 10 10 10 10 9 6 4 3 2 2 3 3 1 0 2 5 8 8 7 6
32 32 32 33 33 33 33 31 30 31 31 32 32 31 29 28 27 27 27 28 29 29 29 29 28 27 26 30 35 39 40 42 42 40 39 39 38 37 36 37 38 38 35 33 34 34 36 35 32 28 25 25 25 24 24 22 18 15 15 13 15 18 19 17 13 12 10 9 10 9 9 9 8 7 5 4 4 3 5 5 3 1 1 2 4 6 6 6
32 33 33 34 34 35 35 34 33 33 32 32 32 32 31 29 28 27 26 27 31 32 30 30 30 27 27 30 33 35 40 44 43 42 42 41 40 39 38 39 39 38 35 33 35 35 35 32 28 28 27 27 27 27 27 26 20 17 18 16 17 21 21 19 15 12 10 9 9 9 8 8 7 7 6 6 5 4 5 6 5 3 2 1 1 2 2 3
33 33 33 34 35 36 36 36 35 34 34 34 33 33 32 31 30 28 25 23 27 34 33 31 31 27 28 32 33 33 36 41 42 43 45 43 42 41 40 40 40 39 37 36 36 35 32 27 26 30 32 32 32 31 30 28 22 19 21 19 19 23 23 21 18 14 11 9 9 10 10 9 8 7 5 4 5 5 6 7 6 3 3 2 2 2 1 1
33 33 33 34 35 36 37 37 37 36 36 35 34 34 33 32 31 30 28 22 20 30 35 34 31 27 27 32 35 35 33 36 40 43 46 46 43 42 41 41 41 40 40 38 36 33 27 23 29 35 36 36 35 32 31 30 25 22 22 21 21 23 24 22 18 14 13 10 9 11 12 10 8 6 4 2 3 5 6 8 7 4 4 4 4 4 3 4
34 34 34 34 35 36 37 37 37 37 37 37 36 36 35 33 32 30 30 25 19 24 33 35 33 28 27 32 36 35 31 32 39 42 45 47 45 44 43 42 41 42 41 39 37 34 27 24 32 38 38 38 37 33 33 30 25 23 22 22 23 23 23 22 18 16 15 13 12 12 13 11 8 6 3 1 2 4 5 7 7 5 4 5 5 5 6 6
35 35 34 34 35 35 36 36 37 38 37 38 37 37 36 35 34 32 31 28 21 21 29 32 34 31 29 31 35 36 32 29 35 41 44 46 46 45 44 43 43 42 42 41 39 36 29 29 36 40 40 40 39 35 33 29 25 24 23 23 23 21 21 23 22 21 20 18 14 11 13 12 9 9 6 2 2 4 5 5 6 4 4 6 5 5 6 6
35 35 35 35 35 35 36 36 37 37 38 38 38 38 38 37 36 34 33 32 25 21 27 31 33 33 31 32 34 37 34 27 31 41 45 45 47 47 46 45 44 42 42 43 42 37 31 32 38 42 42 42 40 37 34 29 26 25 24 24 24 22 21 22 22 22 22 18 14 13 15 14 13 12 9 5 5 6 5 4 5 5 4 6 6 5 5 6
35 35 35 36 36 36 36 37 37 37 37 38 38 38 39 38 38 36 34 34 28 22 25 29 31 31 33 34 35 36 34 26 28 40 45 44 46 48 48 47 45 43 43 44 44 38 33 34 39 43 45 44 42 39 34 30 27 25 24 25 25 24 24 23 22 22 20 17 17 17 17 18 16 13 8 7 7 6 5 2 3 4 5 7 7 6 5 6
36 36 36 36 37 36 36 37 38 38 38 38 38 39 39 39 39 37 36 36 29 22 22 27 29 30 31 34 35 36 34 27 29 38 42 42 45 48 49 48 46 43 43 45 44 38 34 36 39 42 45 45 41 37 34 31 26 23 25 27 26 25 25 24 25 24 22 23 24 21 19 20 18 14 10 10 7 5 4 3 4 3 4 7 8 8 7 7
36 36 36 37 38 37 37 38 39 39 39 38 38 39 39 40 39 38 38 37 29 23 24 26 29 31 30 31 34 36 35 30 30 36 41 43 44 47 48 47 46 44 44 45 43 40 38 38 41 43 45 43 39 37 37 33 26 25 30 31 28 28 28 27 28 27 27 29 28 24 20 21 19 16 12 11 7 5 6 6 6 4 4 6 9 10 8 8
37 37 37 37 38 39 38 39 40 40 40 40 39 39 40 40 40 39 39 36 28 25 26 27 28 31 31 30 32 34 33 29 30 36 42 44 44 45 47 47 47 46 46 47 46 44 43 43 45 47 46 44 41 41 40 34 28 29 34 34 32 32 31 31 32 31 33 35 31 23 19 21 20 18 14 11 7 7 8 9 8 4 4 6 10 13 10 7
39 39 39 38 39 40 40 41 41 40 41 41 40 40 40 40 40 42 40 33 28 26 26 27 27 30 32 30 31 32 30 28 31 36 41 45 45 47 48 49 50 50 49 50 49 48 47 47 49 48 47 47 47 47 45 38 32 34 38 37 35 35 35 35 36 36 37 37 31 23 20 24 20 16 13 10 8 10 11 11 9 4 7 8 11 14 13 10
40 40 40 40 40 41 42 43 42 41 41 41 41 41 40 41 42 43 39 31 29 28 26 27 28 29 31 30 30 32 28 26 31 37 41 44 46 47 48 50 51 52 52 52 51 50 49 50 51 50 48 50 51 50 49 42 37 40 42 40 40 39 39 40 39 39 40 37 31 25 24 27 18 13 12 13 12 12 13 14 9 5 8 7 10 14 15 13
42 42 42 42 42 42 43 44 43 44 42 40 42 42 42 43 43 41 36 31 30 28 26 28 28 29 31 31 30 31 28 26 30 36 40 43 45 46 46 49 51 51 51 51 50 50 51 51 52 52 51 51 53 52 51 47 42 44 45 44 44 43 42 43 42 41 40 37 33 28 29 30 19 10 10 13 12 12 13 13 8 6 7 6 10 15 15 14
44 43 44 44 44 43 44 45 45 45 44 42 43 44 44 45 43 39 35 31 29 29 29 30 29 29 30 31 31 30 28 27 30 37 40 42 44 45 46 48 50 51 49 49 50 51 52 53 51 51 51 50 52 52 51 47 43 44 46 45 46 45 44 43 42 41 39 36 34 32 34 35 22 10 10 14 14 15 15 11 8 10 10 10 14 16 15 15
45 45 45 45 45 45 45 46 46 46 46 45 44 46 47 45 41 38 35 31 31 31 31 31 30 29 28 30 32 31 28 27 31 37 41 41 42 43 44 46 48 50 50 50 52 52 54 53 48 50 51 48 50 52 51 49 45 45 48 49 49 47 44 42 41 40 39 37 37 37 38 37 29 20 19 19 19 18 15 10 9 11 11 11 15 16 16 16
47 46 46 46 46 46 46 47 47 48 48 47 47 47 46 44 41 38 35 33 32 32 32 31 31 29 28 30 32 32 30 29 32 37 40 42 42 40 40 41 44 47 49 50 51 52 54 52 48 51 53 50 50 53 52 52 49 47 50 51 50 47 44 43 42 41 41 41 41 40 40 38 33 28 24 22 20 19 15 11 10 12 12 12 14 15 16 15
48 47 48 47 47 47 48 48 49 49 49 49 49 48 45 44 42 39 36 34 33 33 32 32 33 31 29 30 32 33 32 31 33 36 39 42 43 41 38 38 39 42 44 46 48 50 52 51 50 52 54 52 52 53 52 53 52 51 52 50 49 48 46 45 45 45 45 45 44 42 40 38 36 33 27 21 18 16 13 10 10 12 14 14 14 15 16 17
48 48 49 48 48 48 49 49 50 50 51 51 50 48 46 44 41 38 36 36 35 34 34 34 34 33 32 32 33 34 34 33 34 36 38 41 43 43 38 34 34 37 39 41 45 48 50 51 51 52 54 54 54 55 55 55 56 56 54 52 52 52 50 48 47 48 48 47 47 45 43 41 39 36 31 25 19 14 10 9 10 13 15 16 17 18 20 22
49 48 49 49 49 49 49 50 51 52 52 52 50 48 46 43 39 38 38 37 36 37 36 36 35 35 34 34 34 35 36 36 35 37 39 40 41 41 37 31 29 30 31 34 40 45 48 50 51 52 54 55 56 59 59 57 58 60 58 58 58 55 52 50 49 48 48 48 48 47 46 45 41 36 33 27 21 16 13 12 14 17 18 19 21 20 19 19
48 48 49 49 49 50 50 51 52 53 53 52 50 48 46 42 40 39 39 39 39 39 39 38 37 37 36 36 36 37 39 39 38 39 40 40 40 39 36 32 29 26 25 27 33 37 42 49 52 51 52 55 57 58 58 58 60 61 61 61 60 56 54 52 51 50 49 50 50 49 49 48 43 38 34 28 23 21 18 17 18 21 23 25 23 18 16 15
49 48 48 48 49 51 51 52 53 53 53 52 51 48 46 44 41 40 41 42 41 41 42 41 40 39 38 38 38 39 41 41 40 41 41 40 40 38 35 32 29 27 25 26 29 32 37 45 50 51 51 53 55 54 54 56 60 60 61 61 58 55 54 53 53 53 51 52 52 51 51 49 45 41 36 30 25 24 24 24 24 24 25 26 22 18 17 16
49 49 49 48 50 52 52 53 53 53 53 52 51 49 47 46 44 42 43 44 44 43 44 43 41 40 38 38 39 40 43 44 43 43 43 40 39 38 35 32 30 29 29 31 31 29 30 36 44 49 51 51 51 51 53 56 59 61 62 62 59 56 55 54 54 53 52 53 53 53 52 50 47 43 38 32 26 24 26 28 27 23 23 22 20 17 16 16
51 50 50 49 50 52 53 54 54 54 53 52 51 50 49 48 46 45 45 46 46 44 43 42 41 39 38 39 40 42 44 46 46 45 45 43 41 38 36 34 32 32 33 34 32 28 27 32 39 45 49 50 48 48 53 56 60 62 63 62 61 57 55 55 54 52 54 55 54 53 54 52 48 44 38 33 29 26 27 28 27 24 22 20 19 17 17 17
52 50 51 51 51 52 54 55 55 55 54 53 53 51 50 49 47 46 45 45 45 43 42 42 40 40 39 40 41 43 45 47 48 47 48 47 44 40 37 35 33 33 35 35 33 30 31 34 36 40 46 49 48 49 53 57 61 62 61 61 61 57 56 56 53 50 54 58 56 55 56 53 48 44 38 32 30 28 26 26 25 22 20 19 19 19 18 19
52 51 52 52 52 53 54 55 55 55 55 54 53 51 49 49 48 46 44 44 44 44 43 42 41 40 40 40 42 44 46 48 49 50 50 48 45 42 39 37 35 35 36 35 32 30 31 32 32 35 43 50 52 52 54 56 58 60 60 60 60 58 57 56 53 53 55 57 56 55 55 50 45 41 36 32 33 31 25 23 23 20 19 19 20 20 20 20
51 51 52 52 52 53 54 55 56 56 55 54 52 50 49 48 47 46 45 44 44 45 44 43 42 41 41 42 43 44 46 48 50 52 51 48 46 44 40 37 37 36 36 35 32 30 31 31 28 29 36 45 49 49 49 51 55 57 57 57 57 57 56 56 56 58 57 55 54 51 48 46 43 38 34 33 34 32 25 21 20 19 19 19 19 18 18 17
49 49 50 52 53 53 54 55 56 56 55 54 52 50 49 48 47 46 45 45 44 45 46 45 43 42 41 41 43 44 45 49 52 52 51 49 48 45 42 39 38 37 36 35 33 33 33 33 29 25 28 35 41 43 45 47 51 53 53 53 54 55 56 57 58 57 55 55 52 45 42 43 38 32 29 30 29 26 21 20 19 17 17 17 17 17 17 17
49 48 49 51 53 54 54 55 55 55 55 54 52 50 48 48 47 47 47 46 45 45 47 46 44 42 42 42 44 45 46 49 53 53 52 52 51 47 42 40 39 37 37 36 35 35 35 34 31 27 25 29 34 38 43 46 49 52 52 52 53 55 56 56 56 54 53 54 49 40 38 37 31 25 26 27 26 23 21 21 19 17 16 18 19 18 18 18
50 49 50 50 51 53 54 55 55 54 53 53 52 50 48 48 48 48 48 47 46 46 47 47 45 43 44 44 45 46 47 49 52 54 54 53 53 51 45 43 42 38 37 38 36 36 37 34 31 28 26 27 30 34 40 46 48 52 54 53 54 55 56 55 52 49 48 49 46 40 37 33 26 23 25 25 26 25 23 22 21 19 19 19 19 19 18 18
51 50 51 51 51 53 54 55 55 54 52 52 52 49 48 48 48 49 49 48 46 46 47 47 45 44 44 45 45 46 47 48 49 53 56 55 53 53 50 46 45 41 39 40 39 39 38 35 32 31 30 30 30 31 37 45 49 52 55 55 55 55 55 54 51 47 45 45 43 40 38 34 26 24 26 26 27 27 26 26 24 21 20 21 20 20 20 20
53 52 52 52 51 52 53 54 55 55 53 51 52 50 48 48 48 49 50 48 46 47 48 48 45 44 45 45 46 46 48 50 49 51 56 57 54 54 52 49 47 45 42 41 41 40 40 37 35 35 35 35 33 31 35 41 47 54 57 57 57 56 55 53 50 48 47 46 44 42 40 35 28 27 29 28 27 27 27 29 28 26 23 23 24 23 22 21
53 52 52 52 51 50 51 52 54 55 54 51 51 51 49 47 48 49 50 48 47 47 48 48 45 44 45 46 47 48 49 50 49 49 53 57 56 55 54 51 49 48 44 43 42 41 41 41 39 39 40 39 36 33 33 36 43 54 59 58 57 56 54 51 49 47 47 47 46 44 40 32 26 27 30 29 28 28 27 29 30 30 28 27 27 27 24 22
Wind_Direction
280 274 270 267 265 264 263 262 261 261 261 260 260 259 258 257 258 259 259 258 256 248 234 225 222 221 221 229 228 216 210 201 191 193 204 208 207 205 198 198 192 184 182 178 172 169 165 160 158 153 147 139 134 131 121 112 105 91 76 69 76 79 71 65 60 53 45 39 34 24 34 43 50 56 45 43 44 55 65 61 62 58 56 48 33 49 64 76
291 286 281 275 270 267 264 263 262 261 260 259 258 258 257 256 255 255 256 256 255 252 242 231 225 223 220 223 220 218 217 203 193 198 204 197 197 196 194 202 191 181 183 180 175 171 167 164 161 157 150 144 141 136 129 122 115 100 80 69 72 75 71 62 54 48 42 39 42 35 37 50 57 62 56 54 50 56 64 62 67 65 60 54 42 47 56 56
292 291 290 286 281 275 270 266 264 262 261 260 258 257 256 255 254 253 253 254 254 252 247 237 229 225 221 222 218 214 219 210 201 201 192 175 189 192 194 200 190 184 184 183 181 175 170 167 164 160 154 151 148 140 132 131 127 112 86 69 62 64 66 59 49 47 45 48 59 54 55 67 59 65 66 62 53 48 71 71 71 72 67 62 54 50 52 43
288 288 289 289 288 285 280 275 269 265 262 261 259 258 256 254 253 251 251 251 251 251 248 242 234 229 224 222 220 212 213 217 210 200 192 190 197 197 198 199 191 187 187 188 187 180 175 170 168 165 159 157 155 148 141 147 145 121 95 72 57 55 62 55 45 48 53 65 74 66 76 44 43 53 52 55 58 58 90 89 83 81 75 70 66 59 58 55
286 286 285 285 286 286 286 283 278 273 267 263 260 259 257 254 252 250 249 248 248 249 248 244 238 232 227 223 223 216 209 215 215 206 200 200 203 204 205 204 196 191 191 193 190 183 181 176 175 171 165 163 162 165 163 166 171 127 98 79 63 54 51 42 41 53 69 86 80 71 67 29 30 52 61 60 68 102 112 101 95 90 83 76 71 67 66 65
283 283 283 283 283 283 284 284 283 281 276 270 265 261 258 256 254 251 248 245 245 246 246 244 240 235 230 224 224 221 213 212 217 215 206 204 206 207 208 207 204 199 196 195 191 188 189 184 180 174 171 171 171 177 174 168 176 141 110 92 79 58 37 28 38 67 90 93 82 83 104 55 36 57 73 73 71 100 110 105 99 94 90 84 77 72 71 69
281 281 280 280 281 280 281 281 281 281 280 278 273 267 261 258 256 253 250 246 243 243 243 243 240 237 232 226 224 224 220 212 215 220 213 207 207 205 206 209 208 205 201 197 192 194 196 189 182 178 176 177 179 184 180 178 183 158 134 119 99 68 34 26 42 86 99 93 88 104 127 116 61 53 67 72 65 76 92 97 99 98 96 94 89 82 78 75
280 279 279 279 279 279 279 278 278 278 278 278 277 273 268 262 258 255 253 249 244 241 241 242 241 237 233 229 224 223 224 215 210 219 218 211 208 203 205 210 210 206 202 198 194 197 198 191 184 181 179 181 187 191 190 194 195 173 160 143 114 77 44 39 61 96 97 93 96 115 128 116 82 61 68 72 63 60 70 83 92 98 101 102 102 98 91 85
279 278 278 278 278 277 278 278 277 277 276 275 275 275 274 270 264 258 255 252 249 244 240 239 240 239 234 231 225 222 225 218 207 213 217 211 204 201 205 210 210 204 201 199 198 199 197 191 187 185 184 187 194 199 201 205 206 189 182 167 131 102 73 66 79 95 96 94 103 121 124 110 93 78 77 78 70 64 67 70 75 88 98 104 108 107 105 99
280 278 278 277 277 277 277 277 277 276 275 274 273 273 273 274 271 265 259 256 253 249 244 239 238 239 236 232 226 223 224 219 210 210 215 211 200 197 203 208 207 201 200 202 201 199 196 192 190 192 191 194 200 208 213 215 218 210 201 190 154 130 107 85 79 89 111 107 107 123 119 108 98 88 86 85 74 67 67 64 62 69 85 97 106 110 112 113
283 281 279 278 278 278 277 277 277 276 275 274 273 272 272 272 272 271 267 261 256 253 249 244 239 237 237 234 228 225 223 220 214 210 213 210 200 197 201 207 207 201 199 201 201 198 195 193 194 196 197 201 206 214 224 224 220 218 219 208 171 140 115 89 72 72 113 114 111 128 120 111 104 94 87 82 73 67 63 61 59 59 69 84 96 105 111 117
285 284 283 281 280 279 279 279 278 278 277 275 274 273 272 272 272 272 271 268 261 255 251 248 242 238 237 235 231 227 223 219 215 211 212 209 201 198 201 207 209 205 200 198 199 199 198 197 196 199 203 207 209 215 228 230 218 217 225 213 173 139 114 93 71 57 71 87 106 134 124 118 112 101 89 77 69 66 58 52 56 55 56 66 79 93 103 112
285 284 284 283 282 281 281 281 280 279 279 278 277 275 273 272 272 271 271 270 267 260 253 248 244 239 236 236 234 228 221 218 215 212 210 207 202 200 202 206 210 211 207 200 200 201 202 202 200 204 207 209 211 218 231 234 218 216 225 210 168 134 114 98 70 48 33 9 81 123 114 107 98 91 84 68 59 59 55 43 48 52 50 52 60 73 89 103
284 283 283 282 282 281 281 281 281 280 279 279 280 279 277 274 272 271 270 269 267 265 257 249 244 240 236 235 234 227 220 218 216 213 209 206 203 201 203 205 209 215 214 209 208 207 207 206 206 208 208 209 215 223 234 234 214 211 220 204 159 131 109 89 58 33 6 324 105 108 95 80 64 58 52 41 39 47 50 35 44 57 54 50 49 55 65 79
283 282 281 280 280 280 280 280 281 280 279 280 280 280 280 278 275 272 270 268 266 265 262 254 247 241 237 235 232 226 221 220 219 216 210 206 204 203 204 204 207 214 217 215 214 213 212 211 210 209 208 212 217 223 232 229 209 206 210 194 148 124 100 71 45 19 265 285 101 97 80 66 51 40 34 28 25 41 51 43 49 66 65 60 51 48 51 54
282 282 281 280 279 278 278 278 279 279 278 279 279 280 280 279 277 274 272 268 266 263 262 258 252 244 238 237 233 226 223 222 223 220 213 210 207 205 206 205 207 211 215 216 216 217 216 213 211 211 212 215 217 220 229 226 212 208 198 183 143 115 98 66 44 41 202 30 71 85 75 68 51 35 32 30 21 38 57 60 70 89 98 87 69 54 51 49
282 281 281 280 279 278 277 276 276 276 276 276 277 278 278 279 278 277 274 270 266 263 262 260 257 250 241 239 235 227 225 225 224 222 218 215 212 211 210 208 209 210 212 215 217 218 218 215 214 216 216 217 215 218 227 226 219 214 194 179 148 116 102 79 70 106 135 68 82 90 81 73 56 36 34 28 11 27 54 66 92 109 118 112 93 71 59 55
282 281 280 280 280 279 278 277 275 275 275 274 275 276 277 278 278 277 276 273 268 265 262 260 258 254 245 240 236 229 226 226 224 222 219 217 216 215 214 213 213 212 212 214 217 217 218 218 217 218 219 219 217 218 225 229 226 222 207 179 135 110 100 95 103 114 115 111 106 99 88 78 68 53 45 38 26 43 46 44 95 120 126 123 113 101 83 68
283 281 280 279 279 279 279 278 276 275 275 274 274 275 275 276 277 277 277 274 271 267 264 260 257 255 251 246 239 231 228 226 224 222 219 218 217 216 216 217 217 216 214 215 217 218 218 220 221 222 223 222 219 220 223 228 228 217 210 181 129 114 110 112 119 119 118 122 119 110 94 85 80 78 85 86 80 64 37 28 36 55 134 129 124 122 113 95
283 282 280 278 278 279 279 278 277 276 275 275 275 274 274 274 274 276 279 278 274 269 265 262 258 254 252 251 245 236 230 228 224 221 220 218 218 218 218 218 220 221 220 217 217 218 220 223 226 227 226 224 222 221 220 223 225 211 201 182 144 134 132 132 136 132 131 135 137 129 108 97 95 96 108 105 85 63 40 27 19 352 293 149 127 123 124 121
284 282 281 279 278 278 278 278 277 276 275 275 276 275 274 273 272 272 276 282 281 274 266 262 258 254 250 250 249 242 233 231 226 221 221 220 218 219 220 220 222 224 223 220 218 218 220 223 226 225 222 222 220 219 219 221 223 212 202 188 158 145 140 143 154 153 149 149 155 158 135 118 114 111 106 86 53 35 37 25 9 347 303 252 154 108 116 135
284 283 281 280 279 278 277 277 277 277 276 275 275 275 275 274 273 271 270 278 286 282 274 265 257 254 251 249 249 246 237 233 231 225 222 221 219 218 222 223 223 224 224 224 221 219 220 221 221 220 217 217 218 217 217 219 222 214 205 195 169 152 148 153 162 166 169 165 167 179 167 141 126 118 104 74 32 11 19 17 3 339 300 280 284 305 313 277
285 283 282 280 279 278 277 277 277 276 276 276 275 274 274 274 273 272 269 268 278 283 280 273 262 252 249 250 247 245 240 232 231 228 224 222 220 218 220 224 224 224 225 227 226 224 223 218 214 216 215 216 218 218 217 218 224 219 207 200 182 165 160 159 163 173 179 179 180 190 184 160 136 120 103 58 14 352 359 9 2 340 309 289 288 294 290 280
285 284 282 281 279 278 278 277 277 276 276 276 276 276 275 275 273 272 271 267 267 278 280 277 272 258 247 249 249 246 241 232 228 229 227 224 222 219 218 223 225 225 227 229 229 226 224 217 212 214 215 216 218 219 217 217 224 222 209 204 196 181 169 167 175 186 192 197 194 201 200 176 156 147 135 36 338 324 335 1 355 331 308 292 290 292 289 284
284 283 282 281 279 278 278 277 276 276 276 275 276 276 276 276 275 273 273 269 265 275 279 278 276 268 252 246 249 246 241 233 227 228 229 224 222 220 217 220 224 225 228 230 230 227 221 214 213 214 214 217 219 219 217 218 223 220 210 206 202 190 181 184 191 195 201 203 196 212 215 189 184 184 169 202 279 287 302 339 343 320 296 288 289 290 295 294
282 282 282 280 279 278 277 277 276 276 276 275 275 276 276 276 276 275 275 272 269 273 278 277 275 271 260 248 246 246 241 232 223 224 227 224 221 220 217 218 222 224 227 230 232 229 220 213 212 213 214 217 221 219 216 218 219 214 205 200 199 196 198 204 207 209 212 205 200 228 231 216 210 193 180 213 228 240 269 319 328 313 304 294 290 288 296 302
282 281 281 280 279 278 277 276 276 276 275 275 275 275 275 275 275 275 276 274 274 279 278 276 274 270 264 253 246 246 242 232 223 224 226 224 221 220 219 217 218 221 225 229 231 229 222 215 213 212 213 217 220 219 216 218 218 208 196 193 196 202 208 215 221 226 227 222 223 232 235 234 217 190 197 220 209 221 243 283 291 296 312 306 300 293 297 308
281 280 280 280 279 277 276 276 276 276 275 274 275 274 274 274 274 275 275 274 276 280 276 275 275 271 265 257 249 246 242 232 223 223 224 223 221 219 219 218 217 218 224 228 232 231 225 219 217 215 215 218 220 219 217 220 218 201 191 194 199 206 213 220 228 232 234 235 236 232 238 243 217 192 213 217 203 224 224 236 248 251 294 308 314 303 295 307
279 279 279 279 278 277 276 275 275 276 275 274 273 273 273 273 273 273 273 274 276 278 275 274 275 272 267 261 253 247 242 233 224 222 219 218 219 218 217 217 217 216 221 226 229 230 227 222 219 217 218 221 222 219 218 221 216 196 193 198 202 210 217 223 228 232 235 236 236 230 236 245 222 200 215 215 201 202 195 216 224 216 272 309 326 319 307 305
278 277 277 277 277 277 276 274 274 274 274 274 272 272 272 272 273 273 272 274 277 277 274 272 273 273 270 262 254 249 245 235 226 223 219 215 215 216 215 214 215 215 218 223 224 226 225 223 220 217 217 220 220 219 219 221 214 198 197 201 205 213 218 225 229 232 236 237 236 231 235 251 235 205 206 207 180 176 197 214 215 225 304 317 320 322 325 316
276 276 275 275 275 275 275 273 273 272 273 273 272 271 271 271 271 271 271 275 278 275 272 271 271 272 270 263 253 249 246 238 228 224 221 215 213 213 212 211 213 213 215 219 221 222 222 222 221 218 216 215 216 217 218 219 212 201 201 203 209 216 220 224 228 230 235 237 238 236 239 252 236 194 197 215 197 197 208 210 212 263 312 311 308 315 326 324
275 275 274 273 273 273 273 272 272 272 271 271 272 270 269 270 270 270 273 276 275 272 270 270 270 269 268 263 253 246 243 239 231 224 220 216 214 213 211 210 212 214 215 217 218 219 221 221 222 220 216 213 213 215 216 217 212 205 202 204 210 217 220 224 227 230 235 239 239 237 240 246 231 188 208 229 224 221 214 207 214 286 313 305 297 300 315 321
273 273 273 273 271 271 270 271 271 271 270 269 269 269 267 267 269 271 273 273 271 269 268 267 267 266 264 260 252 245 239 235 231 225 220 217 215 213 211 210 212 214 216 218 219 220 221 221 221 222 219 214 213 215 216 217 214 208 204 204 209 215 220 225 228 230 235 239 239 238 242 245 231 191 216 233 237 241 226 215 227 278 287 272 268 279 301 314
271 271 272 271 270 269 269 269 269 269 269 267 267 267 266 267 269 271 270 268 266 265 262 262 263 264 263 258 251 244 236 231 229 226 221 217 216 214 211 210 211 212 214 217 220 221 223 222 221 222 222 217 215 217 218 218 218 214 210 209 214 218 223 228 232 234 237 239 240 241 244 247 240 221 241 247 245 247 241 231 240 262 265 259 261 272 292 302
270 269 269 269 268 268 267 267 267 267 266 266 265 265 266 267 269 269 266 262 260 259 259 260 262 262 260 256 252 246 237 229 226 225 222 218 216 215 213 212 212 213 212 214 217 220 224 223 221 224 225 220 218 219 220 220 219 218 215 215 219 222 225 231 236 236 237 238 240 242 245 249 250 247 249 247 242 246 248 241 246 264 271 266 267 275 286 289
269 268 267 266 266 265 265 264 264 264 264 264 263 263 265 267 267 265 262 258 257 256 257 258 259 258 253 249 249 246 237 227 222 223 222 219 215 214 214 213 214 216 215 216 217 220 223 222 220 225 226 222 220 220 220 221 221 220 219 219 221 223 225 231 236 237 236 238 241 243 245 250 253 252 250 249 249 251 255 256 263 274 278 274 273 275 279 282
268 267 266 265 264 263 262 262 262 262 262 262 262 262 263 264 263 261 259 256 255 254 252 252 253 254 248 242 243 244 238 228 222 220 220 220 217 213 212 212 213 216 217 218 220 221 224 223 219 223 226 224 222 221 220 221 222 222 222 221 222 223 225 228 233 235 236 239 243 246 248 250 253 253 253 254 257 258 264 269 273 279 284 287 286 278 276 279
268 266 264 263 262 260 260 260 260 260 259 260 260 261 261 261 261 259 256 253 252 250 249 248 249 249 245 238 236 238 236 228 222 219 218 220 220 215 212 211 212 215 217 219 222 222 224 224 220 221 225 224 223 223 220 217 219 222 222 222 222 223 225 227 230 233 235 238 244 248 250 250 251 253 255 257 261 263 265 266 272 281 286 289 287 279 274 274
268 264 262 261 260 259 257 257 257 257 257 258 259 259 260 260 259 255 252 250 248 247 246 245 245 245 243 237 230 230 232 228 223 220 219 220 221 216 211 207 207 211 215 220 223 223 224 223 219 219 222 223 222 222 220 215 216 219 219 219 221 222 225 228 230 234 237 240 244 248 251 251 252 254 256 259 262 260 254 256 270 278 280 283 283 275 268 266
268 263 260 259 258 257 256 255 255 256 256 257 257 257 257 257 253 250 248 247 246 245 245 243 242 241 239 236 228 224 228 228 223 221 220 220 220 216 212 208 202 201 209 219 223 224 226 225 220 217 220 222 220 221 219 215 215 218 219 218 219 220 222 226 229 232 236 240 244 248 250 252 254 256 258 260 263 262 258 261 268 271 273 276 274 260 249 253
268 262 258 257 255 255 254 253 253 254 254 255 255 254 253 252 250 246 245 245 244 244 243 241 240 239 236 232 227 222 224 227 224 222 222 221 220 217 213 211 204 198 204 215 219 221 225 226 221 217 218 220 220 220 219 217 216 219 221 220 219 221 222 224 227 229 232 237 242 246 250 252 255 257 258 260 261 262 264 266 265 263 264 266 261 246 237 242
268 262 258 256 253 252 253 252 252 252 252 253 252 252 251 250 247 243 242 242 242 241 242 242 241 241 237 231 226 222 222 226 226 224 223 222 221 218 213 210 207 203 207 211 213 216 225 231 227 220 217 218 219 219 218 217 216 218 221 220 220 222 223 225 228 229 231 236 240 244 248 251 253 254 256 256 257 259 260 260 257 253 253 256 255 248 241 241
267 261 258 256 252 250 250 250 250 250 250 250 250 249 248 247 245 242 239 240 242 241 243 243 242 241 237 229 225 222 222 225 227 226 223 222 222 218 212 209 209 210 213 211 207 209 222 232 229 222 218 216 217 218 217 215 215 217 220 220 219 221 222 225 229 232 233 236 239 243 247 250 252 254 253 252 252 254 253 250 251 250 248 249 254 257 252 249
266 260 257 255 251 248 248 248 248 248 247 247 247 246 245 245 244 241 238 238 240 241 241 242 241 239 235 228 225 224 223 225 226 226 225 223 223 219 211 209 213 216 217 213 205 205 214 224 226 222 219 216 215 215 214 214 214 216 219 220 219 219 220 223 227 232 235 236 237 242 246 248 250 252 252 248 247 251 253 249 249 249 246 249 257 260 256 253
265 260 257 255 251 247 246 246 246 246 245 245 245 244 243 243 243 241 238 236 237 238 238 239 239 237 234 229 227 225 225 225 226 227 227 225 224 220 213 211 215 217 218 213 206 205 212 220 225 225 221 217 214 214 214 214 214 215 217 219 219 219 219 220 223 228 233 236 237 240 243 244 246 250 253 249 245 249 251 245 239 238 241 248 254 255 253 254
262 258 256 254 250 247 245 245 245 244 244 243 243 242 241 241 241 239 237 234 234 235 236 236 235 234 232 229 228 226 226 226 226 227 227 225 223 220 215 214 217 218 218 213 204 203 210 215 221 227 225 220 218 218 217 216 217 217 217 218 219 219 219 220 223 227 232 235 238 239 240 244 247 251 254 250 247 248 248 243 239 239 242 247 249 248 247 249
259 255 253 252 250 247 244 243 243 243 243 242 241 239 238 238 237 236 234 232 230 232 233 233 233 232 231 229 228 226 225 226 228 227 227 227 225 220 216 216 220 221 220 215 205 203 209 212 213 220 224 220 218 219 219 217 218 219 218 218 219 219 220 222 225 229 232 235 237 237 240 244 247 248 249 250 249 248 247 251 253 249 247 247 245 241 242 245
257 252 248 247 248 247 243 241 241 242 242 241 239 238 236 235 234 233 232 230 228 228 231 232 231 230 229 227 226 226 224 225 227 227 226 226 227 223 216 217 222 223 224 220 210 206 212 212 209 211 214 213 214 216 217 217 217 217 217 216 215 217 220 224 227 231 233 235 237 239 240 241 241 242 245 248 248 246 248 257 261 254 247 245 245 248 253 256
253 250 246 243 243 244 243 240 239 240 240 240 238 237 235 233 232 232 231 229 227 226 228 230 229 227 226 225 225 224 224 225 226 227 226 226 227 226 219 218 222 223 226 226 216 212 215 213 210 212 210 207 209 211 212 215 217 217 215 213 213 215 220 224 227 230 232 236 237 238 237 234 233 239 243 243 243 243 247 254 255 251 248 249 255 263 267 268
250 247 244 242 240 240 241 240 238 237 238 238 237 235 233 232 231 231 230 227 225 224 226 228 228 226 225 226 226 225 224 226 226 226 226 225 225 225 222 221 222 223 226 225 219 215 216 213 212 216 215 209 207 209 210 212 215 217 215 213 214 216 220 222 224 225 227 230 233 235 235 230 226 236 241 240 240 241 245 250 251 249 251 258 265 271 274 277
248 244 242 240 239 238 238 239 238 236 235 235 235 234 232 230 229 230 229 227 224 223 224 225 225 226 225 225 226 226 225 225 225 224 226 226 223 222 221 220 221 223 224 222 218 215 215 215 216 223 224 215 207 210 213 211 214 216 215 214 215 218 220 221 222 224 226 229 233 234 233 227 224 233 241 243 244 242 244 248 249 250 253 259 266 272 277 279
246 243 240 238 237 237 237 236 236 236 234 233 233 232 230 228 227 228 228 226 223 222 224 225 223 223 224 225 225 226 226 226 226 224 225 227 226 222 219 217 219 222 222 220 217 214 214 216 218 225 227 216 205 209 215 216 219 218 213 212 215 219 221 221 221 223 227 230 233 233 231 226 227 236 243 248 251 251 249 249 251 253 256 258 265 270 272 270
Height
5886 5885 5885 5885 5885 5885 5885 5885 5885 5886 5886 5887 5888 5889 5890 5890 5891 5891 5892 5892 5893 5893 5894 5894 5894 5895 5895 5895 5895 5895 5894 5895 5895 5896 5896 5895 5895 5896 5896 5897 5898 5901 5902 5902 5902 5903 5904 5905 5906 5907 5907 5908 5909 5909 5909 5909 5909 5909 5910 5910 5911 5911 5911 5911 5911 5911 5911 5911 5909 5909 5909 5910 5909 5910 5910 5910 5910 5910 5909 5909 5909 5909 5909 5909 5909 5909 5909 5910
5885 5884 5884 5883 5883 5883 5883 5883 5883 5884 5884 5885 5885 5886 5887 5888 5889 5889 5890 5890 5891 5892 5893 5893 5893 5894 5894 5894 5894 5894 5894 5894 5895 5895 5894 5894 5895 5896 5896 5896 5898 5900 5902 5902 5902 5902 5904 5905 5906 5906 5907 5908 5908 5909 5909 5909 5909 5910 5910 5910 5911 5911 5911 5912 5911 5911 5912 5911 5910 5910 5910 5910 5910 5910 5911 5911 5911 5911 5910 5910 5910 5910 5910 5910 5911 5911 5911 5911
5884 5883 5883 5882 5882 5881 5881 5881 5881 5881 5882 5882 5883 5884 5885 5886 5887 5888 5888 5889 5889 5890 5891 5892 5892 5893 5893 5893 5894 5894 5894 5894 5894 5894 5894 5894 5894 5895 5895 5895 5897 5899 5901 5902 5902 5902 5903 5904 5905 5906 5907 5907 5908 5909 5909 5910 5910 5910 5910 5911 5911 5911 5911 5912 5912 5912 5912 5912 5912 5911 5911 5911 5910 5911 5912 5912 5912 5912 5911 5911 5911 5911 5911 5912 5912 5912 5912 5912
5882 5882 5881 5881 5880 5880 5880 5879 5879 5879 5880 5880 5881 5881 5882 5883 5884 5885 5886 5887 5887 5888 5889 5890 5891 5891 5892 5892 5893 5893 5894 5894 5894 5894 5894 5894 5894 5894 5894 5894 5896 5898 5900 5901 5901 5902 5903 5904 5905 5906 5906 5907 5908 5908 5909 5910 5910 5910 5910 5911 5911 5912 5912 5912 5912 5912 5912 5913 5913 5912 5912 5911 5911 5911 5913 5913 5913 5913 5912 5912 5912 5912 5912 5913 5913 5913 5913 5913
5880 5880 5880 5879 5879 5879 5878 5878 5878 5877 5878 5878 5878 5879 5879 5880 5881 5882 5884 5885 5885 5886 5887 5888 5889 5890 5891 5891 5892 5893 5893 5893 5893 5894 5894 5894 5894 5894 5894 5894 5895 5896 5898 5900 5901 5902 5903 5904 5905 5905 5906 5906 5907 5908 5909 5910 5911 5910 5910 5910 5911 5912 5912 5912 5912 5912 5913 5913 5913 5913 5913 5911 5911 5912 5914 5914 5914 5913 5913 5912 5913 5913 5913 5913 5913 5914 5914 5913
5878 5878 5878 5878 5877 5877 5877 5876 5876 5876 5876 5876 5876 5876 5877 5877 5878 5879 5881 5882 5883 5884 5885 5886 5887 5888 5889 5890 5891 5891 5892 5892 5893 5893 5893 5893 5893 5893 5894 5895 5895 5896 5897 5899 5901 5902 5902 5903 5904 5905 5905 5906 5907 5908 5909 5910 5911 5910 5910 5911 5911 5912 5913 5913 5913 5912 5913 5913 5913 5914 5913 5912 5912 5913 5914 5915 5914 5914 5913 5913 5913 5914 5914 5914 5914 5914 5914 5914
5876 5876 5876 5876 5875 5875 5875 5875 5874 5874 5874 5874 5874 5874 5874 5875 5876 5877 5878 5879 5881 5882 5883 5884 5885 5886 5887 5888 5889 5890 5891 5892 5892 5892 5892 5892 5892 5892 5893 5894 5895 5895 5896 5898 5900 5901 5902 5903 5904 5904 5905 5906 5906 5907 5908 5909 5910 5910 5910 5911 5912 5912 5914 5914 5913 5912 5913 5913 5914 5914 5914 5913 5913 5914 5915 5915 5915 5914 5914 5914 5914 5914 5914 5915 5915 5915 5915 5915
5874 5874 5873 5873 5873 5873 5873 5873 5873 5872 5872 5872 5872 5872 5872 5872 5873 5874 5875 5876 5878 5879 5880 5881 5883 5884 5885 5887 5888 5889 5889 5890 5891 5891 5891 5891 5891 5892 5892 5893 5894 5895 5896 5898 5899 5901 5901 5902 5903 5904 5904 5905 5906 5906 5907 5907 5908 5909 5910 5911 5912 5912 5914 5914 5913 5912 5912 5913 5914 5915 5914 5914 5914 5914 5915 5915 5915 5915 5915 5915 5915 5915 5915 5915 5915 5915 5915 5915
5872 5872 5871 5871 5871 5871 5871 5871 5870 5870 5870 5870 5870 5870 5870 5870 5871 5871 5872 5873 5875 5877 5878 5879 5880 5882 5883 5885 5886 5887 5888 5889 5890 5889 5890 5890 5891 5891 5891 5892 5893 5894 5896 5897 5898 5899 5901 5902 5902 5903 5904 5904 5905 5905 5905 5906 5907 5909 5910 5911 5911 5912 5913 5914 5912 5912 5912 5913 5914 5915 5914 5914 5915 5915 5916 5916 5916 5916 5916 5916 5916 5916 5915 5915 5916 5916 5916 5916
5870 5870 5869 5869 5869 5868 5868 5868 5868 5868 5868 5868 5868 5868 5869 5869 5868 5869 5870 5871 5873 5874 5875 5877 5878 5880 5881 5882 5884 5885 5886 5887 5888 5888 5888 5888 5889 5890 5890 5890 5891 5893 5894 5896 5897 5899 5900 5901 5901 5902 5902 5903 5904 5905 5904 5904 5906 5908 5910 5911 5910 5911 5912 5912 5912 5912 5912 5913 5914 5915 5915 5915 5915 5916 5916 5916 5916 5916 5916 5917 5916 5916 5916 5916 5916 5916 5916 5917
5868 5868 5867 5867 5866 5866 5866 5866 5866 5865 5865 5865 5866 5866 5867 5867 5867 5867 5867 5868 5870 5871 5873 5874 5876 5877 5878 5881 5882 5881 5883 5885 5887 5887 5887 5887 5887 5888 5889 5889 5890 5891 5892 5894 5896 5897 5898 5899 5900 5901 5901 5902 5903 5903 5903 5904 5906 5908 5910 5911 5910 5910 5911 5911 5911 5912 5912 5913 5914 5915 5915 5915 5916 5916 5917 5917 5917 5917 5917 5917 5917 5917 5917 5916 5916 5916 5917 5917
5866 5866 5865 5865 5864 5864 5864 5864 5864 5863 5863 5863 5863 5864 5865 5865 5865 5865 5865 5866 5866 5867 5869 5871 5873 5874 5876 5878 5878 5878 5882 5884 5885 5885 5885 5885 5886 5886 5886 5887 5888 5889 5890 5892 5894 5895 5896 5897 5898 5899 5900 5901 5902 5902 5902 5903 5906 5908 5909 5910 5910 5909 5909 5909 5910 5911 5912 5913 5914 5915 5915 5916 5917 5917 5917 5917 5917 5918 5918 5918 5918 5918 5917 5917 5917 5917 5917 5917
5865 5864 5863 5863 5862 5862 5862 5862 5861 5861 5860 5860 5861 5862 5863 5863 5863 5863 5863 5864 5864 5864 5865 5867 5869 5870 5872 5873 5873 5877 5881 5881 5882 5882 5883 5883 5884 5884 5884 5885 5887 5888 5888 5889 5890 5891 5892 5894 5895 5897 5898 5900 5901 5901 5901 5902 5905 5906 5908 5909 5908 5908 5908 5909 5910 5910 5911 5912 5913 5915 5915 5916 5917 5917 5917 5918 5918 5918 5919 5919 5919 5919 5918 5918 5918 5918 5918 5918
5863 5863 5862 5861 5861 5860 5860 5860 5859 5858 5858 5858 5858 5860 5861 5861 5860 5860 5861 5861 5861 5861 5861 5862 5864 5866 5868 5868 5870 5875 5878 5877 5877 5878 5880 5881 5881 5881 5882 5883 5885 5886 5887 5887 5887 5888 5889 5891 5893 5895 5898 5899 5899 5900 5899 5901 5904 5905 5907 5908 5907 5907 5908 5908 5909 5910 5911 5911 5913 5914 5915 5915 5916 5917 5917 5918 5918 5919 5920 5920 5920 5920 5919 5919 5919 5919 5919 5919
5861 5861 5860 5860 5859 5859 5858 5858 5857 5856 5855 5855 5856 5857 5858 5858 5858 5858 5858 5859 5859 5858 5858 5859 5860 5862 5864 5863 5866 5872 5873 5872 5872 5874 5877 5878 5878 5879 5879 5880 5882 5884 5886 5887 5887 5887 5888 5890 5892 5894 5896 5897 5898 5899 5898 5899 5903 5904 5905 5906 5905 5905 5907 5908 5908 5909 5910 5911 5913 5914 5915 5915 5916 5917 5917 5918 5919 5919 5920 5920 5921 5921 5920 5920 5920 5920 5920 5919
5859 5859 5858 5858 5857 5857 5856 5856 5855 5854 5853 5853 5853 5854 5856 5856 5856 5856 5856 5856 5856 5855 5855 5856 5856 5858 5860 5860 5864 5868 5869 5868 5870 5872 5875 5875 5876 5876 5877 5878 5879 5881 5884 5885 5886 5886 5888 5890 5892 5893 5894 5895 5897 5897 5897 5898 5901 5903 5904 5905 5905 5904 5906 5907 5908 5910 5911 5912 5914 5915 5915 5915 5916 5917 5918 5918 5919 5920 5921 5921 5921 5921 5921 5920 5920 5920 5921 5920
5856 5856 5856 5855 5855 5854 5854 5854 5853 5852 5851 5851 5851 5851 5852 5853 5853 5853 5853 5853 5853 5853 5853 5853 5854 5855 5856 5857 5860 5864 5864 5865 5867 5870 5873 5874 5874 5874 5875 5875 5876 5878 5880 5882 5883 5884 5887 5888 5890 5891 5893 5894 5895 5895 5895 5897 5900 5902 5903 5903 5903 5904 5905 5907 5909 5911 5912 5913 5915 5915 5915 5915 5916 5917 5918 5919 5920 5920 5921 5921 5921 5921 5921 5920 5920 5920 5921 5921
5853 5853 5853 5852 5852 5851 5851 5851 5851 5850 5849 5848 5849 5849 5849 5850 5850 5850 5850 5850 5850 5850 5850 5851 5851 5852 5853 5853 5855 5859 5860 5861 5864 5867 5870 5872 5872 5873 5873 5873 5872 5874 5876 5878 5880 5882 5884 5886 5888 5889 5890 5891 5893 5893 5895 5897 5899 5902 5904 5903 5902 5903 5905 5907 5910 5912 5913 5914 5915 5915 5915 5915 5916 5917 5918 5919 5920 5920 5920 5920 5921 5921 5921 5920 5920 5920 5920 5921
5850 5850 5849 5849 5848 5848 5848 5848 5848 5847 5846 5846 5846 5847 5846 5847 5847 5847 5847 5846 5846 5846 5847 5847 5848 5849 5850 5850 5850 5853 5855 5857 5861 5864 5866 5867 5869 5870 5871 5871 5870 5871 5872 5875 5877 5880 5882 5883 5885 5886 5888 5890 5892 5894 5895 5897 5899 5901 5903 5904 5902 5902 5905 5907 5910 5912 5913 5914 5915 5916 5916 5915 5916 5917 5918 5919 5920 5920 5920 5920 5920 5921 5921 5920 5920 5920 5920 5920
5847 5846 5846 5845 5845 5845 5844 5845 5845 5844 5844 5843 5843 5844 5844 5844 5844 5843 5843 5843 5842 5843 5843 5843 5845 5846 5847 5846 5846 5849 5852 5853 5856 5859 5861 5863 5865 5867 5868 5869 5869 5869 5870 5873 5875 5877 5879 5880 5882 5884 5888 5890 5892 5894 5896 5896 5898 5900 5902 5902 5902 5902 5904 5906 5909 5912 5913 5914 5915 5916 5916 5915 5916 5917 5918 5919 5919 5920 5920 5920 5920 5920 5921 5920 5920 5920 5919 5920
5843 5843 5843 5842 5841 5841 5841 5841 5841 5841 5840 5840 5840 5840 5840 5841 5841 5841 5841 5840 5837 5837 5839 5840 5841 5843 5843 5842 5842 5845 5848 5849 5852 5855 5857 5859 5861 5864 5865 5866 5867 5868 5870 5872 5873 5875 5876 5877 5880 5885 5889 5891 5892 5894 5894 5895 5896 5899 5900 5901 5902 5901 5902 5904 5907 5910 5912 5914 5915 5915 5915 5915 5915 5916 5917 5918 5919 5919 5919 5919 5919 5919 5919 5919 5919 5919 5919 5919
5840 5839 5839 5838 5838 5837 5837 5837 5837 5837 5837 5836 5837 5836 5836 5837 5837 5838 5839 5840 5835 5831 5833 5835 5837 5840 5839 5838 5838 5840 5843 5847 5850 5852 5852 5855 5857 5860 5862 5863 5865 5867 5869 5870 5870 5871 5873 5876 5881 5885 5888 5889 5890 5891 5892 5893 5895 5897 5898 5900 5901 5901 5901 5903 5905 5908 5910 5912 5913 5914 5914 5914 5915 5915 5916 5917 5917 5918 5918 5917 5918 5918 5918 5918 5918 5918 5918 5918
5836 5836 5835 5835 5834 5833 5833 5833 5833 5833 5833 5833 5833 5832 5832 5833 5834 5834 5835 5838 5837 5830 5827 5829 5833 5836 5835 5833 5833 5835 5839 5844 5846 5847 5848 5851 5853 5856 5858 5860 5863 5865 5866 5866 5868 5870 5872 5876 5881 5883 5885 5885 5887 5889 5890 5891 5893 5894 5896 5899 5901 5900 5900 5902 5905 5906 5908 5909 5911 5912 5913 5913 5914 5914 5915 5916 5916 5916 5916 5917 5917 5917 5917 5917 5917 5917 5917 5918
5832 5832 5832 5831 5830 5829 5829 5829 5829 5828 5829 5829 5829 5828 5828 5829 5829 5830 5831 5834 5836 5830 5825 5825 5827 5830 5831 5829 5829 5832 5836 5839 5841 5842 5844 5847 5849 5851 5854 5857 5860 5862 5863 5865 5866 5869 5872 5876 5879 5880 5882 5883 5884 5886 5887 5889 5891 5893 5895 5898 5899 5900 5900 5901 5903 5905 5906 5907 5908 5910 5910 5911 5912 5913 5914 5915 5915 5915 5915 5915 5916 5916 5916 5916 5916 5916 5916 5917
5828 5828 5828 5827 5827 5825 5825 5825 5824 5824 5825 5825 5825 5824 5824 5824 5824 5826 5826 5828 5832 5829 5824 5822 5822 5824 5826 5826 5826 5827 5831 5835 5837 5838 5839 5844 5846 5847 5850 5853 5855 5858 5861 5863 5864 5867 5871 5875 5876 5877 5879 5880 5881 5883 5885 5887 5890 5891 5893 5897 5898 5898 5899 5900 5900 5902 5903 5904 5906 5908 5908 5909 5910 5911 5912 5913 5914 5914 5914 5914 5914 5915 5915 5915 5915 5915 5915 5916
5824 5824 5824 5823 5823 5822 5821 5820 5820 5820 5820 5820 5821 5820 5820 5820 5820 5821 5822 5823 5827 5826 5822 5820 5819 5819 5821 5822 5821 5822 5826 5832 5833 5832 5833 5838 5841 5843 5845 5847 5851 5855 5858 5859 5861 5864 5868 5871 5873 5874 5876 5878 5878 5880 5883 5886 5888 5890 5893 5896 5897 5897 5897 5898 5899 5900 5901 5903 5905 5905 5905 5906 5907 5908 5910 5910 5911 5912 5912 5913 5913 5913 5913 5913 5913 5914 5914 5914
5820 5820 5820 5819 5819 5818 5817 5816 5816 5816 5816 5816 5817 5816 5816 5816 5815 5817 5817 5818 5821 5822 5820 5817 5815 5816 5816 5816 5817 5818 5822 5828 5828 5827 5829 5834 5837 5839 5841 5843 5846 5851 5854 5855 5856 5861 5866 5868 5869 5870 5872 5874 5875 5878 5882 5884 5886 5889 5893 5895 5895 5896 5896 5897 5897 5898 5899 5901 5901 5901 5902 5903 5904 5907 5907 5908 5909 5910 5911 5911 5911 5911 5912 5912 5912 5913 5913 5913
5816 5815 5815 5815 5814 5814 5813 5812 5811 5811 5811 5812 5812 5812 5812 5812 5812 5812 5813 5813 5817 5817 5816 5814 5812 5812 5812 5812 5814 5814 5817 5822 5823 5823 5826 5829 5832 5834 5836 5840 5843 5847 5850 5851 5854 5860 5865 5866 5867 5868 5869 5870 5873 5878 5881 5883 5885 5889 5893 5894 5894 5895 5895 5895 5896 5896 5897 5897 5897 5898 5900 5900 5902 5905 5905 5905 5907 5908 5909 5910 5910 5910 5910 5910 5911 5911 5912 5912
5811 5811 5811 5810 5810 5810 5810 5808 5807 5806 5806 5807 5808 5807 5808 5807 5808 5808 5808 5809 5812 5813 5812 5812 5810 5809 5809 5810 5810 5810 5813 5817 5817 5818 5820 5822 5825 5828 5832 5837 5840 5842 5844 5846 5851 5857 5861 5863 5864 5866 5867 5869 5874 5878 5880 5881 5885 5889 5890 5890 5892 5892 5892 5893 5893 5894 5894 5893 5893 5897 5898 5897 5899 5902 5903 5904 5905 5906 5907 5908 5908 5909 5909 5909 5910 5910 5911 5911
5806 5806 5806 5806 5805 5805 5805 5804 5803 5802 5802 5802 5802 5803 5803 5803 5804 5804 5803 5805 5808 5809 5808 5809 5807 5805 5806 5807 5807 5806 5809 5812 5813 5813 5814 5817 5820 5824 5828 5832 5834 5836 5838 5841 5845 5850 5855 5858 5859 5861 5864 5868 5873 5876 5877 5880 5884 5887 5886 5887 5889 5889 5889 5890 5890 5891 5890 5888 5891 5895 5897 5896 5895 5898 5900 5902 5903 5905 5906 5907 5907 5907 5908 5908 5908 5909 5909 5910
5801 5800 5800 5801 5800 5800 5799 5798 5798 5798 5797 5797 5798 5798 5798 5799 5800 5798 5798 5803 5805 5804 5804 5804 5804 5803 5802 5803 5803 5803 5805 5807 5808 5809 5810 5813 5815 5817 5821 5824 5826 5828 5830 5833 5838 5843 5848 5851 5853 5856 5861 5865 5869 5872 5874 5877 5881 5882 5882 5884 5885 5885 5886 5886 5886 5887 5885 5885 5890 5895 5895 5893 5892 5895 5899 5901 5902 5903 5903 5905 5906 5906 5907 5907 5907 5907 5908 5908
5795 5795 5795 5795 5795 5795 5794 5793 5794 5794 5793 5793 5793 5793 5794 5794 5794 5793 5796 5801 5800 5800 5800 5799 5800 5799 5798 5799 5799 5799 5801 5803 5804 5804 5806 5808 5810 5812 5816 5819 5821 5823 5825 5828 5833 5838 5842 5846 5849 5852 5856 5860 5864 5866 5869 5872 5875 5876 5877 5880 5881 5881 5882 5882 5882 5882 5881 5884 5890 5893 5892 5889 5889 5893 5897 5898 5900 5901 5901 5903 5904 5905 5905 5906 5906 5906 5906 5907
5789 5789 5789 5789 5790 5790 5788 5788 5788 5787 5788 5789 5788 5787 5788 5788 5788 5790 5794 5797 5795 5795 5796 5795 5795 5795 5794 5795 5795 5795 5797 5799 5800 5801 5801 5804 5806 5809 5813 5816 5818 5820 5824 5828 5831 5834 5837 5841 5845 5848 5851 5855 5859 5861 5863 5866 5869 5871 5873 5875 5876 5877 5878 5877 5878 5879 5880 5884 5888 5890 5889 5886 5887 5892 5895 5896 5899 5899 5900 5900 5901 5903 5903 5904 5905 5904 5905 5905
5783 5783 5783 5782 5783 5784 5783 5783 5782 5782 5782 5784 5783 5782 5781 5781 5784 5788 5791 5792 5791 5791 5791 5790 5791 5791 5791 5791 5790 5791 5794 5795 5796 5797 5798 5799 5802 5804 5808 5811 5813 5816 5820 5824 5827 5830 5832 5835 5840 5844 5847 5851 5855 5858 5861 5865 5868 5870 5872 5873 5873 5873 5874 5875 5877 5878 5880 5884 5885 5886 5884 5882 5886 5892 5894 5895 5897 5897 5898 5898 5899 5900 5900 5901 5902 5902 5903 5904
5776 5776 5776 5776 5776 5777 5778 5777 5776 5776 5776 5777 5777 5776 5775 5777 5781 5784 5785 5786 5786 5786 5786 5786 5787 5787 5788 5788 5787 5788 5791 5792 5793 5793 5794 5795 5798 5801 5804 5807 5810 5812 5815 5818 5821 5824 5826 5831 5839 5842 5844 5850 5854 5856 5860 5862 5865 5867 5869 5869 5868 5870 5873 5876 5876 5878 5880 5881 5880 5881 5880 5880 5885 5889 5891 5893 5894 5895 5895 5895 5896 5897 5897 5899 5899 5900 5901 5902
5769 5769 5769 5769 5769 5770 5771 5770 5770 5770 5770 5770 5770 5770 5771 5774 5777 5778 5779 5780 5781 5781 5782 5782 5782 5783 5784 5784 5783 5785 5787 5788 5789 5790 5791 5792 5794 5797 5800 5804 5807 5809 5812 5814 5817 5820 5821 5828 5836 5839 5840 5846 5850 5853 5857 5859 5860 5863 5863 5863 5865 5869 5873 5874 5874 5875 5876 5876 5875 5876 5877 5878 5882 5885 5887 5890 5891 5892 5893 5893 5894 5895 5895 5896 5897 5898 5899 5900
5761 5761 5761 5761 5763 5763 5763 5763 5763 5763 5763 5763 5763 5765 5768 5770 5771 5772 5773 5774 5775 5777 5778 5777 5777 5779 5780 5780 5780 5781 5783 5784 5785 5786 5788 5788 5790 5792 5795 5799 5802 5805 5809 5812 5814 5817 5819 5825 5831 5833 5836 5841 5846 5849 5853 5855 5857 5858 5859 5861 5865 5868 5869 5870 5870 5870 5871 5871 5870 5872 5875 5877 5878 5881 5885 5887 5888 5890 5890 5891 5892 5892 5893 5894 5895 5897 5898 5898
5753 5753 5752 5753 5755 5755 5756 5756 5756 5756 5756 5756 5757 5760 5763 5764 5766 5768 5767 5768 5770 5771 5772 5772 5773 5774 5775 5776 5777 5778 5779 5780 5782 5783 5784 5784 5787 5790 5792 5795 5797 5800 5804 5807 5809 5812 5815 5819 5825 5828 5831 5836 5841 5844 5845 5849 5852 5853 5856 5860 5862 5863 5864 5865 5865 5865 5866 5867 5867 5869 5871 5873 5875 5878 5882 5885 5886 5888 5888 5889 5890 5891 5892 5893 5894 5895 5896 5896
5745 5745 5744 5745 5746 5747 5748 5748 5748 5748 5748 5749 5752 5755 5757 5759 5761 5761 5761 5762 5764 5765 5766 5767 5768 5769 5770 5772 5774 5775 5775 5776 5778 5779 5780 5781 5784 5788 5790 5791 5793 5797 5800 5802 5804 5807 5809 5813 5818 5823 5826 5829 5833 5834 5835 5841 5845 5847 5851 5853 5855 5858 5860 5861 5862 5862 5864 5865 5865 5866 5867 5867 5871 5876 5879 5882 5884 5886 5887 5888 5889 5890 5891 5892 5893 5894 5894 5894
5736 5736 5736 5737 5738 5738 5740 5740 5740 5740 5741 5743 5746 5749 5751 5753 5754 5754 5755 5755 5757 5759 5761 5762 5763 5764 5765 5767 5769 5771 5771 5772 5775 5775 5776 5778 5781 5785 5787 5788 5789 5792 5795 5797 5799 5802 5805 5806 5811 5817 5820 5821 5824 5826 5830 5837 5840 5841 5844 5846 5848 5853 5855 5857 5858 5859 5861 5862 5862 5863 5862 5864 5869 5874 5877 5880 5882 5883 5885 5887 5888 5888 5889 5890 5891 5892 5892 5893
5725 5726 5727 5728 5729 5729 5731 5732 5732 5733 5734 5737 5739 5741 5743 5745 5747 5748 5748 5748 5750 5752 5754 5756 5757 5758 5760 5762 5764 5767 5768 5769 5771 5772 5773 5776 5779 5782 5785 5786 5787 5788 5789 5791 5793 5796 5799 5800 5805 5810 5812 5815 5820 5825 5830 5834 5836 5838 5841 5843 5846 5850 5852 5853 5853 5854 5857 5858 5859 5860 5859 5862 5867 5871 5875 5878 5880 5881 5883 5885 5886 5887 5887 5888 5889 5889 5890 5891
5715 5716 5717 5720 5721 5721 5722 5723 5724 5725 5727 5729 5732 5734 5735 5737 5739 5741 5741 5741 5743 5745 5748 5750 5752 5753 5756 5758 5760 5763 5764 5765 5768 5770 5772 5774 5776 5779 5782 5784 5785 5785 5784 5785 5787 5792 5795 5796 5799 5803 5807 5812 5818 5821 5824 5828 5832 5835 5837 5840 5844 5846 5848 5849 5849 5851 5855 5855 5856 5857 5857 5859 5864 5868 5872 5875 5877 5880 5881 5882 5883 5884 5885 5885 5886 5887 5887 5888
5705 5706 5707 5710 5712 5712 5713 5714 5716 5717 5720 5722 5724 5725 5727 5729 5731 5733 5734 5735 5737 5740 5743 5746 5749 5750 5751 5754 5755 5758 5760 5762 5764 5767 5769 5771 5773 5776 5779 5780 5781 5781 5780 5781 5783 5787 5790 5791 5793 5798 5803 5808 5812 5815 5817 5820 5825 5827 5830 5834 5838 5840 5843 5846 5847 5851 5853 5852 5854 5855 5854 5856 5862 5866 5870 5872 5874 5877 5878 5879 5880 5882 5882 5883 5883 5884 5885 5886
5695 5696 5697 5700 5703 5703 5704 5705 5707 5709 5711 5713 5715 5717 5719 5721 5724 5726 5728 5730 5732 5735 5737 5740 5743 5744 5746 5748 5750 5753 5756 5758 5760 5763 5765 5767 5770 5774 5776 5777 5778 5778 5778 5778 5780 5783 5783 5785 5788 5793 5797 5800 5803 5805 5808 5812 5816 5820 5824 5828 5832 5836 5840 5843 5845 5848 5847 5847 5851 5852 5850 5854 5860 5863 5867 5870 5872 5874 5876 5876 5878 5879 5880 5880 5881 5882 5882 5883
5685 5686 5687 5689 5693 5694 5695 5697 5698 5700 5703 5705 5707 5710 5712 5714 5717 5720 5722 5724 5726 5728 5731 5734 5737 5739 5741 5743 5746 5748 5751 5754 5757 5759 5761 5765 5769 5771 5773 5774 5775 5775 5775 5776 5778 5780 5780 5781 5784 5787 5789 5792 5795 5798 5803 5808 5812 5815 5819 5823 5827 5831 5835 5838 5841 5842 5841 5843 5847 5847 5848 5853 5858 5860 5864 5867 5869 5871 5872 5873 5874 5876 5876 5877 5878 5879 5879 5880
5676 5676 5677 5679 5682 5685 5686 5688 5690 5691 5694 5697 5700 5703 5705 5707 5710 5713 5715 5718 5720 5721 5724 5728 5730 5733 5735 5738 5741 5744 5747 5749 5752 5754 5758 5762 5766 5768 5770 5772 5772 5772 5773 5773 5775 5776 5776 5777 5780 5783 5786 5790 5796 5801 5806 5809 5810 5813 5817 5821 5824 5828 5831 5834 5836 5836 5838 5841 5842 5844 5848 5852 5855 5858 5862 5863 5865 5867 5869 5870 5871 5872 5873 5874 5875 5876 5876 5877
5666 5667 5669 5669 5671 5675 5678 5679 5681 5683 5685 5689 5692 5695 5697 5699 5702 5705 5707 5710 5713 5715 5718 5721 5724 5727 5730 5733 5736 5739 5742 5744 5746 5750 5755 5759 5761 5765 5768 5769 5769 5770 5770 5771 5772 5773 5773 5773 5776 5780 5784 5789 5795 5801 5805 5806 5808 5811 5816 5819 5822 5825 5828 5830 5830 5832 5837 5838 5838 5842 5847 5849 5852 5856 5859 5860 5862 5864 5866 5867 5868 5870 5871 5872 5872 5873 5873 5874
5656 5658 5660 5660 5661 5664 5667 5670 5673 5675 5677 5680 5684 5687 5690 5692 5694 5697 5700 5703 5706 5709 5711 5715 5718 5721 5724 5728 5730 5733 5737 5738 5740 5746 5751 5754 5757 5761 5765 5766 5766 5767 5767 5768 5769 5771 5771 5772 5774 5777 5780 5785 5791 5796 5799 5801 5804 5807 5811 5815 5818 5821 5823 5825 5828 5831 5834 5834 5836 5842 5845 5845 5849 5854 5856 5858 5860 5861 5863 5864 5865 5867 5868 5868 5869 5869 5870 5871
5646 5648 5649 5651 5653 5655 5657 5660 5664 5667 5669 5672 5676 5679 5682 5684 5687 5690 5693 5696 5700 5703 5705 5709 5712 5715 5717 5721 5723 5727 5731 5733 5736 5741 5746 5750 5752 5757 5761 5763 5762 5763 5765 5766 5767 5768 5769 5771 5773 5775 5777 5781 5785 5789 5793 5796 5799 5802 5805 5809 5813 5817 5819 5822 5825 5828 5830 5831 5835 5839 5840 5842 5847 5850 5853 5855 5856 5858 5860 5861 5862 5863 5864 5865 5866 5866 5867 5868
5635 5638 5639 5642 5645 5646 5647 5650 5655 5658 5661 5664 5668 5671 5674 5677 5680 5683 5686 5689 5693 5697 5699 5703 5706 5709 5712 5715 5719 5722 5726 5729 5732 5737 5741 5745 5748 5752 5756 5758 5758 5760 5761 5762 5764 5764 5766 5770 5772 5773 5774 5776 5780 5785 5788 5790 5793 5796 5800 5804 5808 5811 5814 5817 5820 5823 5825 5827 5831 5834 5835 5838 5843 5847 5849 5851 5852 5854 5856 5857 5859 5860 5861 5862 5863 5863 5864 5864
5624 5627 5630 5632 5635 5637 5638 5641 5645 5649 5653 5656 5659 5664 5667 5671 5674 5676 5679 5683 5688 5691 5693 5697 5701 5704 5707 5711 5714 5717 5720 5723 5727 5731 5735 5739 5742 5746 5750 5754 5754 5755 5757 5759 5760 5761 5764 5767 5769 5770 5770 5771 5776 5780 5783 5786 5789 5789 5792 5798 5802 5805 5808 5812 5816 5819 5821 5824 5827 5828 5829 5834 5839 5843 5845 5847 5849 5850 5852 5854 5855 5857 5858 5859 5859 5860 5861 5861
5614 5617 5620 5623 5626 5629 5630 5633 5636 5640 5644 5648 5651 5656 5660 5664 5667 5669 5673 5678 5682 5685 5687 5691 5695 5699 5702 5705 5708 5711 5714 5717 5722 5727 5730 5733 5737 5740 5745 5749 5750 5749 5751 5754 5756 5758 5761 5763 5764 5765 5764 5767 5772 5776 5780 5783 5782 5780 5785 5792 5797 5800 5804 5808 5811 5814 5817 5820 5821 5823 5826 5832 5837 5839 5840 5843 5845 5847 5849 5850 5852 5853 5854 5855 5856 5857 5857 5857